Time,TemperatureF,DewpointF,PressureIn,WindDirection,WindDirectionDegrees,WindSpeedMPH,WindSpeedGustMPH,Humidity,HourlyPrecipIn,Conditions,Clouds,dailyrainin,SoftwareType,DateUTC
2013-04-21 00:01:00,22.1,18.0,30.47,SE,142,0.0,0.0,84,0.00,,,0.00,meteohub,2013-04-21 04:01:00,
2013-04-21 00:02:00,22.1,18.3,30.47,SE,142,0.0,0.0,85,0.00,,,0.00,meteohub,2013-04-21 04:02:00,
2013-04-21 00:07:00,21.9,18.1,30.48,SE,141,0.0,0.0,85,0.00,,,0.00,meteohub,2013-04-21 04:07:00,
2013-04-21 00:12:00,21.7,18.0,30.47,SE,142,0.0,0.0,85,0.00,,,0.00,meteohub,2013-04-21 04:12:00,
2013-04-21 00:17:00,21.6,17.8,30.47,SE,142,0.0,0.0,85,0.00,,,0.00,meteohub,2013-04-21 04:17:00,
2013-04-21 00:22:00,21.6,17.8,30.48,SE,142,0.0,0.0,85,0.00,,,0.00,meteohub,2013-04-21 04:22:00,
2013-04-21 00:27:00,21.4,17.8,30.48,SE,142,0.0,0.0,86,0.00,,,0.00,meteohub,2013-04-21 04:27:00,
2013-04-21 00:32:00,21.4,17.8,30.48,SE,143,0.0,0.0,86,0.00,,,0.00,meteohub,2013-04-21 04:32:00,
2013-04-21 00:37:00,21.4,17.8,30.48,SE,143,0.0,0.0,86,0.00,,,0.00,meteohub,2013-04-21 04:37:00,
2013-04-21 00:42:00,21.2,17.6,30.48,SE,143,0.0,1.0,86,0.00,,,0.00,meteohub,2013-04-21 04:42:00,
2013-04-21 00:47:00,21.4,17.8,30.48,SE,129,0.0,1.0,86,0.00,,,0.00,meteohub,2013-04-21 04:47:00,
2013-04-21 00:52:00,21.2,17.6,30.48,SE,129,0.0,1.0,86,0.00,,,0.00,meteohub,2013-04-21 04:52:00,
2013-04-21 00:57:00,21.0,17.2,30.49,SE,125,0.0,1.0,85,0.00,,,0.00,meteohub,2013-04-21 04:57:00,
2013-04-21 01:02:00,21.2,17.6,30.49,ESE,105,0.0,1.0,86,0.00,,,0.00,meteohub,2013-04-21 05:02:00,
2013-04-21 01:07:00,21.4,17.6,30.49,SSE,151,0.0,2.0,85,0.00,,,0.00,meteohub,2013-04-21 05:07:00,
2013-04-21 01:12:00,21.6,17.4,30.49,SE,143,0.0,2.0,84,0.00,,,0.00,meteohub,2013-04-21 05:12:00,
2013-04-21 01:17:00,21.6,17.4,30.49,East,100,0.0,2.0,84,0.00,,,0.00,meteohub,2013-04-21 05:17:00,
2013-04-21 01:22:00,21.6,17.8,30.49,East,100,0.0,2.0,85,0.00,,,0.00,meteohub,2013-04-21 05:22:00,
2013-04-21 01:27:00,21.4,17.2,30.49,East,100,0.0,1.0,84,0.00,,,0.00,meteohub,2013-04-21 05:27:00,
2013-04-21 01:33:00,21.0,16.7,30.49,East,100,0.0,1.0,83,0.00,,,0.00,meteohub,2013-04-21 05:33:00,
2013-04-21 01:38:00,20.7,16.5,30.50,East,100,0.0,1.0,84,0.00,,,0.00,meteohub,2013-04-21 05:38:00,
2013-04-21 01:43:00,20.7,16.9,30.50,ESE,102,0.0,1.0,85,0.00,,,0.00,meteohub,2013-04-21 05:43:00,
2013-04-21 01:48:00,20.5,16.9,30.50,ESE,102,0.0,1.0,86,0.00,,,0.00,meteohub,2013-04-21 05:48:00,
2013-04-21 01:53:00,20.1,16.7,30.51,East,98,0.0,1.0,86,0.00,,,0.00,meteohub,2013-04-21 05:53:00,
2013-04-21 01:58:00,20.5,16.9,30.51,ESE,110,0.0,1.0,86,0.00,,,0.00,meteohub,2013-04-21 05:58:00,
2013-04-21 02:03:00,20.8,17.1,30.51,SE,134,1.0,2.0,85,0.00,,,0.00,meteohub,2013-04-21 06:03:00,
2013-04-21 02:08:00,21.0,17.2,30.51,East,100,0.0,3.0,85,0.00,,,0.00,meteohub,2013-04-21 06:08:00,
2013-04-21 02:13:00,21.0,17.2,30.52,South,176,0.0,4.0,85,0.00,,,0.00,meteohub,2013-04-21 06:13:00,
2013-04-21 02:18:00,20.8,17.1,30.52,East,96,0.0,4.0,85,0.00,,,0.00,meteohub,2013-04-21 06:18:00,
2013-04-21 02:23:00,20.8,17.1,30.52,ENE,61,0.0,3.0,85,0.00,,,0.00,meteohub,2013-04-21 06:23:00,
2013-04-21 02:28:00,20.8,17.1,30.52,SSE,155,0.0,2.0,85,0.00,,,0.00,meteohub,2013-04-21 06:28:00,
2013-04-21 02:33:00,20.8,16.7,30.52,SSE,155,0.0,2.0,84,0.00,,,0.00,meteohub,2013-04-21 06:33:00,
2013-04-21 02:38:00,20.7,16.5,30.52,SE,126,0.0,1.0,84,0.00,,,0.00,meteohub,2013-04-21 06:38:00,
2013-04-21 02:43:00,20.5,16.3,30.52,SE,126,0.0,1.0,84,0.00,,,0.00,meteohub,2013-04-21 06:43:00,
2013-04-21 02:48:00,20.5,16.3,30.52,SE,126,0.0,0.0,84,0.00,,,0.00,meteohub,2013-04-21 06:48:00,
2013-04-21 02:53:00,20.1,15.8,30.53,SE,126,0.0,0.0,83,0.00,,,0.00,meteohub,2013-04-21 06:53:00,
2013-04-21 02:58:00,19.9,16.0,30.52,SE,126,0.0,0.0,84,0.00,,,0.00,meteohub,2013-04-21 06:58:00,
2013-04-21 03:03:00,19.8,16.0,30.52,SE,126,0.0,0.0,85,0.00,,,0.00,meteohub,2013-04-21 07:03:00,
2013-04-21 03:08:00,19.4,16.0,30.53,SE,126,0.0,0.0,86,0.00,,,0.00,meteohub,2013-04-21 07:08:00,
2013-04-21 03:13:00,19.2,15.8,30.53,SE,126,0.0,0.0,86,0.00,,,0.00,meteohub,2013-04-21 07:13:00,
2013-04-21 03:18:00,19.0,15.8,30.53,SE,126,0.0,0.0,87,0.00,,,0.00,meteohub,2013-04-21 07:18:00,
2013-04-21 03:23:00,18.9,16.0,30.53,SE,126,0.0,0.0,88,0.00,,,0.00,meteohub,2013-04-21 07:23:00,
2013-04-21 03:28:00,18.7,15.8,30.53,SE,126,0.0,0.0,88,0.00,,,0.00,meteohub,2013-04-21 07:28:00,
2013-04-21 03:33:00,18.3,15.4,30.53,SE,126,0.0,0.0,88,0.00,,,0.00,meteohub,2013-04-21 07:33:00,
2013-04-21 03:38:00,18.3,15.6,30.53,SE,126,0.0,0.0,89,0.00,,,0.00,meteohub,2013-04-21 07:38:00,
2013-04-21 03:43:00,18.3,15.6,30.53,SE,127,0.0,0.0,89,0.00,,,0.00,meteohub,2013-04-21 07:43:00,
2013-04-21 03:48:00,18.3,15.6,30.53,SE,127,0.0,0.0,89,0.00,,,0.00,meteohub,2013-04-21 07:48:00,
2013-04-21 03:53:00,18.1,15.4,30.53,SE,127,0.0,0.0,89,0.00,,,0.00,meteohub,2013-04-21 07:53:00,
2013-04-21 03:58:00,18.1,15.6,30.53,East,87,0.0,0.0,90,0.00,,,0.00,meteohub,2013-04-21 07:58:00,
2013-04-21 04:03:00,18.3,15.8,30.53,ESE,115,0.0,1.0,90,0.00,,,0.00,meteohub,2013-04-21 08:03:00,
2013-04-21 04:08:00,18.3,15.6,30.54,ESE,115,0.0,1.0,89,0.00,,,0.00,meteohub,2013-04-21 08:08:00,
2013-04-21 04:13:00,18.3,15.6,30.54,SE,136,1.0,1.0,89,0.00,,,0.00,meteohub,2013-04-21 08:13:00,
2013-04-21 04:18:00,18.3,15.6,30.53,SE,141,2.0,2.0,89,0.00,,,0.00,meteohub,2013-04-21 08:18:00,
2013-04-21 04:23:00,18.7,16.0,30.54,ESE,122,0.0,2.0,89,0.00,,,0.00,meteohub,2013-04-21 08:23:00,
2013-04-21 04:29:00,18.7,15.8,30.54,South,179,0.0,2.0,88,0.00,,,0.00,meteohub,2013-04-21 08:29:00,
2013-04-21 04:34:00,18.7,16.0,30.54,ENE,60,0.0,2.0,89,0.00,,,0.00,meteohub,2013-04-21 08:34:00,
2013-04-21 04:39:00,18.9,16.0,30.54,ESE,117,0.0,2.0,88,0.00,,,0.00,meteohub,2013-04-21 08:39:00,
2013-04-21 04:44:00,18.7,15.4,30.54,ESE,117,0.0,1.0,87,0.00,,,0.00,meteohub,2013-04-21 08:44:00,
2013-04-21 04:49:00,18.7,15.4,30.54,ENE,65,0.0,1.0,87,0.00,,,0.00,meteohub,2013-04-21 08:49:00,
2013-04-21 04:54:00,18.9,15.6,30.54,South,174,0.0,1.0,87,0.00,,,0.00,meteohub,2013-04-21 08:54:00,
2013-04-21 04:59:00,18.7,15.4,30.55,WSW,247,1.0,1.0,87,0.00,,,0.00,meteohub,2013-04-21 08:59:00,
2013-04-21 05:04:00,18.3,15.1,30.56,WSW,246,0.0,1.0,87,0.00,,,0.00,meteohub,2013-04-21 09:04:00,
2013-04-21 05:09:00,18.3,15.4,30.55,ESE,115,0.0,1.0,88,0.00,,,0.00,meteohub,2013-04-21 09:09:00,
2013-04-21 05:14:00,18.1,15.3,30.56,ESE,115,0.0,1.0,88,0.00,,,0.00,meteohub,2013-04-21 09:14:00,
2013-04-21 05:19:00,18.1,15.4,30.56,ESE,122,1.0,1.0,89,0.00,,,0.00,meteohub,2013-04-21 09:19:00,
2013-04-21 05:24:00,18.3,15.6,30.56,South,185,0.0,1.0,89,0.00,,,0.00,meteohub,2013-04-21 09:24:00,
2013-04-21 05:29:00,18.1,15.3,30.56,South,183,0.0,1.0,88,0.00,,,0.00,meteohub,2013-04-21 09:29:00,
2013-04-21 05:34:00,18.1,15.3,30.57,ENE,72,0.0,1.0,88,0.00,,,0.00,meteohub,2013-04-21 09:34:00,
2013-04-21 05:39:00,18.1,15.3,30.57,ENE,73,0.0,1.0,88,0.00,,,0.00,meteohub,2013-04-21 09:39:00,
2013-04-21 05:44:00,18.0,15.1,30.57,ENE,73,0.0,2.0,88,0.00,,,0.00,meteohub,2013-04-21 09:44:00,
2013-04-21 05:49:00,17.8,14.9,30.57,SSE,166,0.0,2.0,88,0.00,,,0.00,meteohub,2013-04-21 09:49:00,
2013-04-21 05:54:00,17.4,14.7,30.57,SSE,160,0.0,1.0,89,0.00,,,0.00,meteohub,2013-04-21 09:54:00,
2013-04-21 05:59:00,17.4,14.7,30.57,South,174,0.0,1.0,89,0.00,,,0.00,meteohub,2013-04-21 09:59:00,
2013-04-21 06:04:00,17.2,14.5,30.58,South,174,0.0,1.0,89,0.00,,,0.00,meteohub,2013-04-21 10:04:00,
2013-04-21 06:09:00,16.9,14.0,30.58,South,172,0.0,1.0,88,0.00,,,0.00,meteohub,2013-04-21 10:09:00,
2013-04-21 06:14:00,17.1,14.7,30.58,South,171,0.0,1.0,90,0.00,,,0.00,meteohub,2013-04-21 10:14:00,
2013-04-21 06:19:00,17.1,14.7,30.58,SSE,168,0.0,1.0,90,0.00,,,0.00,meteohub,2013-04-21 10:19:00,
2013-04-21 06:24:00,17.2,14.9,30.59,SE,134,0.0,1.0,90,0.00,,,0.00,meteohub,2013-04-21 10:24:00,
2013-04-21 06:29:00,17.4,15.1,30.59,SE,130,0.0,1.0,90,0.00,,,0.00,meteohub,2013-04-21 10:29:00,
2013-04-21 06:34:00,17.6,15.3,30.59,ENE,70,0.0,1.0,90,0.00,,,0.00,meteohub,2013-04-21 10:34:00,
2013-04-21 06:39:00,17.8,15.1,30.59,ENE,72,0.0,1.0,89,0.00,,,0.00,meteohub,2013-04-21 10:39:00,
2013-04-21 06:44:00,17.8,15.1,30.60,ESE,122,0.0,1.0,89,0.00,,,0.00,meteohub,2013-04-21 10:44:00,
2013-04-21 06:50:00,18.0,15.3,30.59,East,101,0.0,1.0,89,0.00,,,0.00,meteohub,2013-04-21 10:50:00,
2013-04-21 06:55:00,18.0,15.1,30.60,SSE,148,0.0,1.0,88,0.00,,,0.00,meteohub,2013-04-21 10:55:00,
2013-04-21 07:00:00,17.8,14.9,30.60,SSE,149,0.0,1.0,88,0.00,,,0.00,meteohub,2013-04-21 11:00:00,
2013-04-21 07:05:00,17.4,14.5,30.60,SSE,148,0.0,1.0,88,0.00,,,0.00,meteohub,2013-04-21 11:05:00,
2013-04-21 07:10:00,17.4,14.5,30.60,SSE,148,0.0,1.0,88,0.00,,,0.00,meteohub,2013-04-21 11:10:00,
2013-04-21 07:15:00,17.2,14.5,30.60,SSE,148,0.0,0.0,89,0.00,,,0.00,meteohub,2013-04-21 11:15:00,
2013-04-21 07:20:00,17.4,15.1,30.61,SSE,149,0.0,0.0,90,0.00,,,0.00,meteohub,2013-04-21 11:20:00,
2013-04-21 07:25:00,17.6,15.3,30.61,SSE,148,0.0,0.0,90,0.00,,,0.00,meteohub,2013-04-21 11:25:00,
2013-04-21 07:30:00,18.7,16.5,30.61,NE,56,1.0,0.0,91,0.00,,,0.00,meteohub,2013-04-21 11:30:00,
2013-04-21 07:35:00,20.5,17.8,30.61,East,86,0.0,0.0,89,0.00,,,0.00,meteohub,2013-04-21 11:35:00,
2013-04-21 07:40:00,21.9,18.3,30.61,ENE,66,0.0,1.0,86,0.00,,,0.00,meteohub,2013-04-21 11:40:00,
2013-04-21 07:45:00,23.0,18.3,30.61,SE,140,1.0,1.0,82,0.00,,,0.00,meteohub,2013-04-21 11:45:00,
2013-04-21 07:50:00,24.1,18.9,30.61,SSE,161,0.0,2.0,80,0.00,,,0.00,meteohub,2013-04-21 11:50:00,
2013-04-21 07:55:00,24.8,18.9,30.61,South,184,1.0,2.0,78,0.00,,,0.00,meteohub,2013-04-21 11:55:00,
2013-04-21 08:00:00,25.5,18.7,30.62,SSE,155,1.0,5.0,75,0.00,,,0.00,meteohub,2013-04-21 12:00:00,
2013-04-21 08:05:00,26.1,18.9,30.62,West,268,2.0,5.0,74,0.00,,,0.00,meteohub,2013-04-21 12:05:00,
2013-04-21 08:10:00,26.4,19.2,30.62,ENE,76,1.0,5.0,74,0.00,,,0.00,meteohub,2013-04-21 12:10:00,
2013-04-21 08:15:00,26.8,19.2,30.62,South,183,1.0,4.0,73,0.00,,,0.00,meteohub,2013-04-21 12:15:00,
2013-04-21 08:20:00,27.0,19.8,30.62,South,172,2.0,4.0,74,0.00,,,0.00,meteohub,2013-04-21 12:20:00,
2013-04-21 08:25:00,27.3,20.1,30.63,SE,145,3.0,3.0,74,0.00,,,0.00,meteohub,2013-04-21 12:25:00,
2013-04-21 08:30:00,27.7,20.1,30.62,SW,219,0.0,4.0,73,0.00,,,0.00,meteohub,2013-04-21 12:30:00,
2013-04-21 08:35:00,28.2,20.7,30.63,ESE,107,2.0,4.0,73,0.00,,,0.00,meteohub,2013-04-21 12:35:00,
2013-04-21 08:40:00,28.8,20.8,30.63,SE,141,1.0,4.0,72,0.00,,,0.00,meteohub,2013-04-21 12:40:00,
2013-04-21 08:45:00,29.5,20.8,30.63,East,88,2.0,4.0,70,0.00,,,0.00,meteohub,2013-04-21 12:45:00,
2013-04-21 08:50:00,29.8,20.8,30.62,NE,51,1.0,5.0,69,0.00,,,0.00,meteohub,2013-04-21 12:50:00,
2013-04-21 08:55:00,30.4,21.4,30.62,WSW,244,1.0,5.0,69,0.00,,,0.00,meteohub,2013-04-21 12:55:00,
2013-04-21 09:00:00,30.7,21.0,30.62,SSE,164,0.0,5.0,67,0.00,,,0.00,meteohub,2013-04-21 13:00:00,
2013-04-21 09:05:00,31.5,22.1,30.62,SE,130,0.0,4.0,68,0.00,,,0.00,meteohub,2013-04-21 13:05:00,
2013-04-21 09:10:00,32.2,21.7,30.63,East,92,1.0,4.0,65,0.00,,,0.00,meteohub,2013-04-21 13:10:00,
2013-04-21 09:15:00,32.7,21.6,30.62,SSE,147,1.0,4.0,63,0.00,,,0.00,meteohub,2013-04-21 13:15:00,
2013-04-21 09:20:00,33.3,21.7,30.62,ESE,120,5.0,5.0,62,0.00,,,0.00,meteohub,2013-04-21 13:20:00,
2013-04-21 09:25:00,33.3,20.5,30.62,SW,220,1.0,6.0,59,0.00,,,0.00,meteohub,2013-04-21 13:25:00,
2013-04-21 09:31:00,33.4,21.0,30.63,East,89,2.0,6.0,60,0.00,,,0.00,meteohub,2013-04-21 13:31:00,
2013-04-21 09:36:00,33.8,21.0,30.63,East,97,2.0,6.0,59,0.00,,,0.00,meteohub,2013-04-21 13:36:00,
2013-04-21 09:41:00,34.2,20.8,30.62,ENE,73,2.0,6.0,58,0.00,,,0.00,meteohub,2013-04-21 13:41:00,
2013-04-21 09:46:00,34.5,21.7,30.62,WSW,245,0.0,7.0,59,0.00,,,0.00,meteohub,2013-04-21 13:46:00,
2013-04-21 09:51:00,35.1,20.5,30.62,East,85,1.0,7.0,55,0.00,,,0.00,meteohub,2013-04-21 13:51:00,
2013-04-21 09:56:00,35.8,21.6,30.62,NE,36,0.0,7.0,56,0.00,,,0.00,meteohub,2013-04-21 13:56:00,
2013-04-21 10:01:00,36.1,21.6,30.62,ESE,112,0.0,4.0,55,0.00,,,0.00,meteohub,2013-04-21 14:01:00,
2013-04-21 10:06:00,36.3,19.9,30.62,SSE,150,3.0,6.0,51,0.00,,,0.00,meteohub,2013-04-21 14:06:00,
2013-04-21 10:11:00,36.1,19.8,30.62,SSE,167,1.0,6.0,51,0.00,,,0.00,meteohub,2013-04-21 14:11:00,
2013-04-21 10:16:00,36.1,19.2,30.62,South,181,2.0,8.0,50,0.00,,,0.00,meteohub,2013-04-21 14:16:00,
2013-04-21 10:21:00,36.3,19.4,30.62,South,183,2.0,8.0,50,0.00,,,0.00,meteohub,2013-04-21 14:21:00,
2013-04-21 10:26:00,36.5,20.5,30.62,SE,130,1.0,8.0,52,0.00,,,0.00,meteohub,2013-04-21 14:26:00,
2013-04-21 10:31:00,37.0,20.7,30.62,SSE,149,4.0,6.0,51,0.00,,,0.00,meteohub,2013-04-21 14:31:00,
2013-04-21 10:36:00,36.9,17.4,30.62,SSW,193,4.0,9.0,45,0.00,,,0.00,meteohub,2013-04-21 14:36:00,
2013-04-21 10:41:00,36.9,18.0,30.62,ENE,61,6.0,9.0,46,0.00,,,0.00,meteohub,2013-04-21 14:41:00,
2013-04-21 10:46:00,36.9,18.0,30.63,South,171,4.0,9.0,46,0.00,,,0.00,meteohub,2013-04-21 14:46:00,
2013-04-21 10:51:00,37.0,18.1,30.63,South,175,4.0,11.0,46,0.00,,,0.00,meteohub,2013-04-21 14:51:00,
2013-04-21 10:56:00,37.4,18.5,30.62,South,179,6.0,11.0,46,0.00,,,0.00,meteohub,2013-04-21 14:56:00,
2013-04-21 11:01:00,37.6,17.6,30.62,SW,235,4.0,8.0,44,0.00,,,0.00,meteohub,2013-04-21 15:01:00,
2013-04-21 11:06:00,37.6,19.2,30.62,SSW,192,5.0,11.0,47,0.00,,,0.00,meteohub,2013-04-21 15:06:00,
2013-04-21 11:11:00,37.8,17.8,30.62,SE,127,1.0,11.0,44,0.00,,,0.00,meteohub,2013-04-21 15:11:00,
2013-04-21 11:16:00,37.9,19.0,30.62,SW,235,1.0,9.0,46,0.00,,,0.00,meteohub,2013-04-21 15:16:00,
2013-04-21 11:21:00,38.1,18.1,30.62,SSE,152,0.0,7.0,44,0.00,,,0.00,meteohub,2013-04-21 15:21:00,
2013-04-21 11:26:00,38.7,20.1,30.62,ESE,108,1.0,9.0,47,0.00,,,0.00,meteohub,2013-04-21 15:26:00,
2013-04-21 11:31:00,39.0,18.9,30.61,SSW,206,0.0,9.0,44,0.00,,,0.00,meteohub,2013-04-21 15:31:00,
2013-04-21 11:36:00,39.0,19.4,30.62,ESE,119,6.0,6.0,45,0.00,,,0.00,meteohub,2013-04-21 15:36:00,
2013-04-21 11:41:00,38.8,18.9,30.62,West,277,2.0,8.0,44,0.00,,,0.00,meteohub,2013-04-21 15:41:00,
2013-04-21 11:46:00,39.0,17.8,30.61,South,172,3.0,8.0,42,0.00,,,0.00,meteohub,2013-04-21 15:46:00,
2013-04-21 11:51:00,38.8,18.9,30.61,ENE,77,1.0,8.0,44,0.00,,,0.00,meteohub,2013-04-21 15:51:00,
2013-04-21 11:56:00,38.8,17.8,30.61,South,172,5.0,7.0,42,0.00,,,0.00,meteohub,2013-04-21 15:56:00,
2013-04-21 12:01:00,38.8,17.1,30.61,ENE,68,2.0,7.0,41,0.00,,,0.00,meteohub,2013-04-21 16:01:00,
2013-04-21 12:06:00,39.6,17.2,30.61,SSE,165,3.0,7.0,40,0.00,,,0.00,meteohub,2013-04-21 16:06:00,
2013-04-21 12:11:00,39.9,18.1,30.61,North,0,0.0,6.0,41,0.00,,,0.00,meteohub,2013-04-21 16:11:00,
2013-04-21 12:16:00,40.5,18.0,30.60,SW,214,1.0,6.0,40,0.00,,,0.00,meteohub,2013-04-21 16:16:00,
2013-04-21 12:21:00,40.8,17.2,30.61,SSE,148,3.0,6.0,38,0.00,,,0.00,meteohub,2013-04-21 16:21:00,
2013-04-21 12:27:00,41.2,18.7,30.61,SE,124,4.0,6.0,40,0.00,,,0.00,meteohub,2013-04-21 16:27:00,
2013-04-21 12:32:00,41.4,18.3,30.60,ENE,62,3.0,7.0,39,0.00,,,0.00,meteohub,2013-04-21 16:32:00,
2013-04-21 12:37:00,41.5,17.8,30.60,South,179,1.0,7.0,38,0.00,,,0.00,meteohub,2013-04-21 16:37:00,
2013-04-21 12:42:00,42.3,19.0,30.60,SE,143,4.0,7.0,39,0.00,,,0.00,meteohub,2013-04-21 16:42:00,
2013-04-21 12:47:00,42.4,18.0,30.60,ENE,78,3.0,6.0,37,0.00,,,0.00,meteohub,2013-04-21 16:47:00,
2013-04-21 12:52:00,42.6,18.1,30.60,South,182,2.0,6.0,37,0.00,,,0.00,meteohub,2013-04-21 16:52:00,
2013-04-21 12:57:00,42.6,18.9,30.59,SE,139,9.0,9.0,38,0.00,,,0.00,meteohub,2013-04-21 16:57:00,
2013-04-21 13:02:00,42.6,17.6,30.59,SW,221,4.0,9.0,36,0.00,,,0.00,meteohub,2013-04-21 17:02:00,
2013-04-21 13:07:00,42.6,17.6,30.59,NE,48,3.0,9.0,36,0.00,,,0.00,meteohub,2013-04-21 17:07:00,
2013-04-21 13:12:00,43.2,18.7,30.58,ENE,61,5.0,9.0,37,0.00,,,0.00,meteohub,2013-04-21 17:12:00,
2013-04-21 13:17:00,43.0,18.5,30.58,ESE,113,2.0,8.0,37,0.00,,,0.00,meteohub,2013-04-21 17:17:00,
2013-04-21 13:22:00,43.5,19.0,30.58,ESE,109,3.0,8.0,37,0.00,,,0.00,meteohub,2013-04-21 17:22:00,
2013-04-21 13:27:00,43.2,18.0,30.58,West,262,2.0,8.0,36,0.00,,,0.00,meteohub,2013-04-21 17:27:00,
2013-04-21 13:31:00,43.3,18.9,30.57,SSE,157,2.0,7.0,37,0.00,,,0.00,meteohub,2013-04-21 17:31:00,
2013-04-21 13:37:00,43.7,19.0,30.57,East,91,1.0,11.0,37,0.00,,,0.00,meteohub,2013-04-21 17:37:00,
2013-04-21 13:42:00,43.9,17.2,30.57,WSW,251,0.0,11.0,34,0.00,,,0.00,meteohub,2013-04-21 17:42:00,
2013-04-21 13:47:00,43.5,16.3,30.57,SSE,157,1.0,7.0,33,0.00,,,0.00,meteohub,2013-04-21 17:47:00,
2013-04-21 13:52:00,43.7,16.5,30.56,ENE,70,3.0,10.0,33,0.00,,,0.00,meteohub,2013-04-21 17:52:00,
2013-04-21 13:57:00,43.9,16.7,30.56,SE,130,4.0,10.0,33,0.00,,,0.00,meteohub,2013-04-21 17:57:00,
2013-04-21 14:01:00,44.1,17.4,30.56,NNE,30,1.0,11.0,34,0.00,,,0.00,meteohub,2013-04-21 18:01:00,
2013-04-21 14:06:00,44.2,17.6,30.56,SSW,206,2.0,11.0,34,0.00,,,0.00,meteohub,2013-04-21 18:06:00,
2013-04-21 14:11:00,44.8,17.4,30.56,ENE,73,3.0,11.0,33,0.00,,,0.00,meteohub,2013-04-21 18:11:00,
2013-04-21 14:16:00,45.1,18.5,30.55,East,84,7.0,8.0,34,0.00,,,0.00,meteohub,2013-04-21 18:16:00,
2013-04-21 14:22:00,46.0,19.2,30.56,East,91,3.0,11.0,34,0.00,,,0.00,meteohub,2013-04-21 18:22:00,
2013-04-21 14:27:00,46.0,15.6,30.55,NE,46,6.0,11.0,29,0.00,,,0.00,meteohub,2013-04-21 18:27:00,
2013-04-21 14:32:00,46.0,19.2,30.55,ENE,64,2.0,10.0,34,0.00,,,0.00,meteohub,2013-04-21 18:32:00,
2013-04-21 14:37:00,46.8,17.8,30.55,NE,50,4.0,10.0,31,0.00,,,0.00,meteohub,2013-04-21 18:37:00,
2013-04-21 14:42:00,46.9,18.7,30.54,West,268,3.0,12.0,32,0.00,,,0.00,meteohub,2013-04-21 18:42:00,
2013-04-21 14:47:00,46.9,17.8,30.54,SSW,210,6.0,12.0,31,0.00,,,0.00,meteohub,2013-04-21 18:47:00,
2013-04-21 14:52:00,46.9,17.8,30.54,SW,226,4.0,12.0,31,0.00,,,0.00,meteohub,2013-04-21 18:52:00,
2013-04-21 14:57:00,47.1,18.0,30.54,ENE,72,3.0,10.0,31,0.00,,,0.00,meteohub,2013-04-21 18:57:00,
2013-04-21 15:02:00,47.3,17.4,30.53,WNW,285,1.0,10.0,30,0.00,,,0.00,meteohub,2013-04-21 19:02:00,
2013-04-21 15:07:00,46.8,16.9,30.53,ESE,112,0.0,9.0,30,0.00,,,0.00,meteohub,2013-04-21 19:07:00,
2013-04-21 15:12:00,47.1,16.5,30.53,SW,228,3.0,9.0,29,0.00,,,0.00,meteohub,2013-04-21 19:12:00,
2013-04-21 15:17:00,46.9,17.1,30.53,ESE,106,5.0,7.0,30,0.00,,,0.00,meteohub,2013-04-21 19:17:00,
2013-04-21 15:22:00,47.5,19.0,30.52,SSW,192,1.0,6.0,32,0.00,,,0.00,meteohub,2013-04-21 19:22:00,
2013-04-21 15:27:00,48.4,19.0,30.52,WSW,252,2.0,6.0,31,0.00,,,0.00,meteohub,2013-04-21 19:27:00,
2013-04-21 15:32:00,48.7,17.1,30.52,SSE,165,1.0,7.0,28,0.00,,,0.00,meteohub,2013-04-21 19:32:00,
2013-04-21 15:37:00,48.6,16.9,30.51,ENE,75,5.0,8.0,28,0.00,,,0.00,meteohub,2013-04-21 19:37:00,
2013-04-21 15:42:00,48.4,16.7,30.51,SSW,202,3.0,8.0,28,0.00,,,0.00,meteohub,2013-04-21 19:42:00,
2013-04-21 15:47:00,48.4,15.1,30.51,NE,51,6.0,8.0,26,0.00,,,0.00,meteohub,2013-04-21 19:47:00,
2013-04-21 15:52:00,47.8,15.4,30.51,SE,141,2.0,9.0,27,0.00,,,0.00,meteohub,2013-04-21 19:52:00,
2013-04-21 15:57:00,47.7,15.3,30.50,ENE,70,3.0,9.0,27,0.00,,,0.00,meteohub,2013-04-21 19:57:00,
2013-04-21 16:02:00,47.5,16.0,30.50,ENE,58,2.0,12.0,28,0.00,,,0.00,meteohub,2013-04-21 20:02:00,
2013-04-21 16:07:00,47.7,15.3,30.50,SW,223,3.0,12.0,27,0.00,,,0.00,meteohub,2013-04-21 20:07:00,
2013-04-21 16:12:00,48.0,18.1,30.50,SSW,207,3.0,12.0,30,0.00,,,0.00,meteohub,2013-04-21 20:12:00,
2013-04-21 16:17:00,48.0,16.5,30.49,WNW,300,3.0,8.0,28,0.00,,,0.00,meteohub,2013-04-21 20:17:00,
2013-04-21 16:22:00,47.5,16.0,30.49,NE,40,5.0,9.0,28,0.00,,,0.00,meteohub,2013-04-21 20:22:00,
2013-04-21 16:27:00,46.9,14.7,30.48,WNW,289,2.0,9.0,27,0.00,,,0.00,meteohub,2013-04-21 20:27:00,
2013-04-21 16:32:00,46.6,15.3,30.48,South,179,8.0,10.0,28,0.00,,,0.00,meteohub,2013-04-21 20:32:00,
2013-04-21 16:37:00,46.9,17.1,30.48,NE,53,2.0,12.0,30,0.00,,,0.00,meteohub,2013-04-21 20:37:00,
2013-04-21 16:42:00,47.8,18.7,30.48,WSW,243,0.0,12.0,31,0.00,,,0.00,meteohub,2013-04-21 20:42:00,
2013-04-21 16:47:00,48.7,18.7,30.47,West,270,2.0,12.0,30,0.00,,,0.00,meteohub,2013-04-21 20:47:00,
2013-04-21 16:52:00,48.7,17.1,30.47,ESE,112,2.0,9.0,28,0.00,,,0.00,meteohub,2013-04-21 20:52:00,
2013-04-21 16:57:00,48.7,18.7,30.46,SSE,168,1.0,9.0,30,0.00,,,0.00,meteohub,2013-04-21 20:57:00,
2013-04-21 17:02:00,48.7,18.0,30.46,South,175,3.0,9.0,29,0.00,,,0.00,meteohub,2013-04-21 21:02:00,
2013-04-21 17:07:00,48.2,18.1,30.46,East,91,2.0,9.0,30,0.00,,,0.00,meteohub,2013-04-21 21:07:00,
2013-04-21 17:12:00,48.4,19.9,30.46,East,100,2.0,9.0,32,0.00,,,0.00,meteohub,2013-04-21 21:12:00,
2013-04-21 17:17:00,48.2,17.4,30.45,SSE,152,1.0,9.0,29,0.00,,,0.00,meteohub,2013-04-21 21:17:00,
2013-04-21 17:22:00,48.7,18.0,30.45,SSE,167,7.0,11.0,29,0.00,,,0.00,meteohub,2013-04-21 21:22:00,
2013-04-21 17:27:00,48.9,18.0,30.45,SW,230,3.0,12.0,29,0.00,,,0.00,meteohub,2013-04-21 21:27:00,
2013-04-21 17:32:00,49.3,19.2,30.45,South,179,2.0,12.0,30,0.00,,,0.00,meteohub,2013-04-21 21:32:00,
2013-04-21 17:37:00,49.3,19.2,30.45,East,91,4.0,12.0,30,0.00,,,0.00,meteohub,2013-04-21 21:37:00,
2013-04-21 17:42:00,49.5,18.5,30.45,ESE,102,6.0,12.0,29,0.00,,,0.00,meteohub,2013-04-21 21:42:00,
2013-04-21 17:47:00,49.5,19.2,30.45,East,83,8.0,12.0,30,0.00,,,0.00,meteohub,2013-04-21 21:47:00,
2013-04-21 17:52:00,48.9,18.9,30.44,SW,214,2.0,12.0,30,0.00,,,0.00,meteohub,2013-04-21 21:52:00,
2013-04-21 17:57:00,48.7,18.0,30.44,WSW,244,4.0,12.0,29,0.00,,,0.00,meteohub,2013-04-21 21:57:00,
2013-04-21 18:02:00,48.7,18.7,30.44,ESE,103,6.0,16.0,30,0.00,,,0.00,meteohub,2013-04-21 22:02:00,
2013-04-21 18:07:00,48.2,19.0,30.44,WSW,247,2.0,16.0,31,0.00,,,0.00,meteohub,2013-04-21 22:07:00,
2013-04-21 18:12:00,47.8,19.4,30.43,SSE,165,2.0,16.0,32,0.00,,,0.00,meteohub,2013-04-21 22:12:00,
2013-04-21 18:17:00,47.8,20.1,30.43,SSW,209,7.0,13.0,33,0.00,,,0.00,meteohub,2013-04-21 22:17:00,
2013-04-21 18:22:00,48.2,20.5,30.43,East,82,2.0,11.0,33,0.00,,,0.00,meteohub,2013-04-21 22:22:00,
2013-04-21 18:27:00,48.6,20.8,30.43,WSW,248,1.0,10.0,33,0.00,,,0.00,meteohub,2013-04-21 22:27:00,
2013-04-21 18:32:00,48.7,20.1,30.43,ESE,107,4.0,8.0,32,0.00,,,0.00,meteohub,2013-04-21 22:32:00,
2013-04-21 18:37:00,48.6,20.8,30.43,ESE,102,2.0,8.0,33,0.00,,,0.00,meteohub,2013-04-21 22:37:00,
2013-04-21 18:42:00,48.4,21.4,30.43,SW,220,2.0,7.0,34,0.00,,,0.00,meteohub,2013-04-21 22:42:00,
2013-04-21 18:47:00,47.8,20.1,30.42,SE,134,4.0,7.0,33,0.00,,,0.00,meteohub,2013-04-21 22:47:00,
2013-04-21 18:52:00,47.7,20.7,30.42,SW,220,2.0,7.0,34,0.00,,,0.00,meteohub,2013-04-21 22:52:00,
2013-04-21 18:57:00,47.7,21.4,30.42,SW,228,2.0,7.0,35,0.00,,,0.00,meteohub,2013-04-21 22:57:00,
2013-04-21 19:02:00,47.5,21.2,30.42,SSW,206,3.0,8.0,35,0.00,,,0.00,meteohub,2013-04-21 23:02:00,
2013-04-21 19:07:00,47.3,20.3,30.43,SSE,154,2.0,8.0,34,0.00,,,0.00,meteohub,2013-04-21 23:07:00,
2013-04-21 19:13:00,47.5,21.2,30.42,SW,223,2.0,7.0,35,0.00,,,0.00,meteohub,2013-04-21 23:13:00,
2013-04-21 19:18:00,47.5,21.2,30.42,ESE,107,3.0,7.0,35,0.00,,,0.00,meteohub,2013-04-21 23:18:00,
2013-04-21 19:23:00,46.9,20.7,30.43,SSW,210,2.0,9.0,35,0.00,,,0.00,meteohub,2013-04-21 23:23:00,
2013-04-21 19:28:00,46.8,21.2,30.42,SSE,154,4.0,11.0,36,0.00,,,0.00,meteohub,2013-04-21 23:28:00,
2013-04-21 19:33:00,46.8,21.2,30.42,South,182,2.0,11.0,36,0.00,,,0.00,meteohub,2013-04-21 23:33:00,
2013-04-21 19:38:00,46.8,21.2,30.42,West,268,1.0,11.0,36,0.00,,,0.00,meteohub,2013-04-21 23:38:00,
2013-04-21 19:43:00,46.6,21.7,30.42,SSE,164,4.0,7.0,37,0.00,,,0.00,meteohub,2013-04-21 23:43:00,
2013-04-21 19:48:00,46.2,21.9,30.42,SSE,154,4.0,9.0,38,0.00,,,0.00,meteohub,2013-04-21 23:48:00,
2013-04-21 19:53:00,45.7,21.6,30.41,North,7,1.0,9.0,38,0.00,,,0.00,meteohub,2013-04-21 23:53:00,
2013-04-21 19:58:00,45.3,21.7,30.42,South,169,2.0,9.0,39,0.00,,,0.00,meteohub,2013-04-21 23:58:00,
2013-04-21 20:03:00,45.1,21.7,30.42,South,182,1.0,8.0,39,0.00,,,0.00,meteohub,2013-04-22 00:03:00,
2013-04-21 20:08:00,44.8,22.5,30.42,South,169,1.0,8.0,41,0.00,,,0.00,meteohub,2013-04-22 00:08:00,
2013-04-21 20:13:00,44.8,22.5,30.42,SW,221,1.0,4.0,41,0.00,,,0.00,meteohub,2013-04-22 00:13:00,
2013-04-21 20:18:00,44.8,23.0,30.42,SSW,210,0.0,5.0,42,0.00,,,0.00,meteohub,2013-04-22 00:18:00,
2013-04-21 20:23:00,44.4,22.8,30.42,SW,216,1.0,5.0,42,0.00,,,0.00,meteohub,2013-04-22 00:23:00,
2013-04-21 20:28:00,44.4,23.4,30.42,WSW,247,1.0,5.0,43,0.00,,,0.00,meteohub,2013-04-22 00:28:00,
2013-04-21 20:33:00,44.2,23.2,30.42,NE,50,1.0,3.0,43,0.00,,,0.00,meteohub,2013-04-22 00:33:00,
2013-04-21 20:38:00,44.2,23.7,30.42,South,174,0.0,3.0,44,0.00,,,0.00,meteohub,2013-04-22 00:38:00,
2013-04-21 20:43:00,44.2,23.7,30.42,East,92,1.0,2.0,44,0.00,,,0.00,meteohub,2013-04-22 00:43:00,
2013-04-21 20:48:00,44.1,23.5,30.42,SSE,150,1.0,4.0,44,0.00,,,0.00,meteohub,2013-04-22 00:48:00,
2013-04-21 20:53:00,44.1,24.1,30.42,NE,36,0.0,4.0,45,0.00,,,0.00,meteohub,2013-04-22 00:53:00,
2013-04-21 20:58:00,44.1,24.6,30.42,South,176,1.0,4.0,46,0.00,,,0.00,meteohub,2013-04-22 00:58:00,
2013-04-21 21:03:00,43.9,24.4,30.41,SW,228,0.0,3.0,46,0.00,,,0.00,meteohub,2013-04-22 01:03:00,
2013-04-21 21:08:00,43.9,24.4,30.42,ENE,65,2.0,4.0,46,0.00,,,0.00,meteohub,2013-04-22 01:08:00,
2013-04-21 21:13:00,44.1,25.2,30.41,ESE,120,3.0,4.0,47,0.00,,,0.00,meteohub,2013-04-22 01:13:00,
2013-04-21 21:18:00,44.1,25.2,30.42,ESE,102,0.0,4.0,47,0.00,,,0.00,meteohub,2013-04-22 01:18:00,
2013-04-21 21:23:00,44.1,25.2,30.42,East,91,2.0,4.0,47,0.00,,,0.00,meteohub,2013-04-22 01:23:00,
2013-04-21 21:28:00,44.1,25.2,30.42,East,83,0.0,5.0,47,0.00,,,0.00,meteohub,2013-04-22 01:28:00,
2013-04-21 21:33:00,44.1,25.7,30.42,SSE,164,1.0,5.0,48,0.00,,,0.00,meteohub,2013-04-22 01:33:00,
2013-04-21 21:38:00,44.1,25.7,30.42,ENE,58,1.0,5.0,48,0.00,,,0.00,meteohub,2013-04-22 01:38:00,
2013-04-21 21:43:00,44.1,26.1,30.42,ESE,123,1.0,5.0,49,0.00,,,0.00,meteohub,2013-04-22 01:43:00,
2013-04-21 21:48:00,43.9,25.9,30.42,NE,54,3.0,4.0,49,0.00,,,0.00,meteohub,2013-04-22 01:48:00,
2013-04-21 21:53:00,43.9,26.4,30.42,SE,125,0.0,4.0,50,0.00,,,0.00,meteohub,2013-04-22 01:53:00,
2013-04-21 21:58:00,43.9,25.9,30.42,South,178,1.0,5.0,49,0.00,,,0.00,meteohub,2013-04-22 01:58:00,
2013-04-21 22:03:00,43.7,26.8,30.41,SE,131,2.0,5.0,51,0.00,,,0.00,meteohub,2013-04-22 02:03:00,
2013-04-21 22:08:00,43.5,26.6,30.41,SSE,167,3.0,5.0,51,0.00,,,0.00,meteohub,2013-04-22 02:08:00,
2013-04-21 22:13:00,43.3,26.4,30.41,South,174,3.0,5.0,51,0.00,,,0.00,meteohub,2013-04-22 02:13:00,
2013-04-21 22:18:00,43.3,27.0,30.41,SE,135,2.0,5.0,52,0.00,,,0.00,meteohub,2013-04-22 02:18:00,
2013-04-21 22:23:00,43.2,27.1,30.41,SSW,210,2.0,8.0,53,0.00,,,0.00,meteohub,2013-04-22 02:23:00,
2013-04-21 22:28:00,43.0,27.0,30.40,SE,137,2.0,8.0,53,0.00,,,0.00,meteohub,2013-04-22 02:28:00,
2013-04-21 22:33:00,42.6,27.1,30.41,NNW,330,1.0,8.0,54,0.00,,,0.00,meteohub,2013-04-22 02:33:00,
2013-04-21 22:38:00,42.4,27.5,30.40,East,81,2.0,9.0,55,0.00,,,0.00,meteohub,2013-04-22 02:38:00,
2013-04-21 22:43:00,42.4,27.9,30.40,SE,144,3.0,9.0,56,0.00,,,0.00,meteohub,2013-04-22 02:43:00,
2013-04-21 22:48:00,42.3,27.7,30.40,SW,221,1.0,8.0,56,0.00,,,0.00,meteohub,2013-04-22 02:48:00,
2013-04-21 22:53:00,42.1,27.5,30.40,WSW,241,2.0,8.0,56,0.00,,,0.00,meteohub,2013-04-22 02:53:00,
2013-04-21 22:58:00,42.1,27.9,30.40,SSE,162,0.0,6.0,57,0.00,,,0.00,meteohub,2013-04-22 02:58:00,
2013-04-21 23:03:00,41.7,27.7,30.40,East,85,2.0,6.0,57,0.00,,,0.00,meteohub,2013-04-22 03:03:00,
2013-04-21 23:09:00,41.5,27.5,30.40,South,181,4.0,8.0,57,0.00,,,0.00,meteohub,2013-04-22 03:09:00,
2013-04-21 23:14:00,41.4,27.7,30.40,SSE,167,2.0,8.0,58,0.00,,,0.00,meteohub,2013-04-22 03:14:00,
2013-04-21 23:19:00,41.2,27.9,30.40,SW,228,1.0,9.0,59,0.00,,,0.00,meteohub,2013-04-22 03:19:00,
2013-04-21 23:24:00,40.8,28.0,30.40,East,79,3.0,9.0,60,0.00,,,0.00,meteohub,2013-04-22 03:24:00,
2013-04-21 23:29:00,40.8,27.7,30.40,ESE,102,1.0,6.0,59,0.00,,,0.00,meteohub,2013-04-22 03:29:00,
2013-04-21 23:34:00,40.6,27.9,30.40,East,93,4.0,9.0,60,0.00,,,0.00,meteohub,2013-04-22 03:34:00,
2013-04-21 23:39:00,40.5,28.0,30.39,WNW,290,2.0,9.0,61,0.00,,,0.00,meteohub,2013-04-22 03:39:00,
2013-04-21 23:44:00,40.3,27.9,30.39,ESE,110,3.0,7.0,61,0.00,,,0.00,meteohub,2013-04-22 03:44:00,
2013-04-21 23:49:00,39.9,28.0,30.39,SE,142,2.0,7.0,62,0.00,,,0.00,meteohub,2013-04-22 03:49:00,
2013-04-21 23:54:00,39.7,28.2,30.38,SSE,162,1.0,5.0,63,0.00,,,0.00,meteohub,2013-04-22 03:54:00,
2013-04-21 23:59:00,39.7,28.6,30.38,WSW,252,1.0,5.0,64,0.00,,,0.00,meteohub,2013-04-22 03:59:00,